Theta_e
320 318 321 319 320 306 311 311 307 309 315 312 307 307 309 309 305 302 311 310 312 315 316 319 321 321 321 322 324 325 326 328 328 327 329 329 329 331 335 334 333 338 338 339 341 345 345 340 339 338 346 344 358 349 348 350 356 353 358 365 358 359 358
320 323 321 320 320 318 314 307 310 316 317 315 309 302 306 303 299 303 307 305 307 308 310 317 318 317 319 320 321 323 325 327 328 328 330 331 332 331 331 334 337 338 339 341 342 342 342 342 340 341 349 341 353 351 355 351 358 358 363 364 359 356 357
320 322 320 317 320 321 314 312 318 309 305 303 308 306 299 299 299 302 306 307 307 309 309 312 313 315 317 319 326 324 323 324 325 327 330 332 332 333 334 335 335 338 341 342 346 345 342 343 343 338 339 344 349 348 350 365 362 361 358 360 356 356 356
319 319 317 309 312 318 319 319 315 316 311 307 305 306 307 307 301 301 303 305 303 310 311 313 313 316 318 319 320 320 322 323 323 328 326 330 336 339 337 334 334 336 338 339 342 345 344 342 340 339 338 338 337 353 361 367 367 367 366 360 357 356 357
317 310 314 311 313 310 311 311 311 312 311 314 311 310 307 304 303 302 302 300 305 315 316 314 315 317 318 319 321 326 325 324 327 330 336 335 341 340 337 335 337 338 338 337 340 343 345 345 341 340 339 337 338 349 355 359 358 363 367 368 367 367 366
309 312 317 317 316 316 313 311 309 310 308 306 303 302 311 308 304 304 301 300 310 313 318 319 318 319 320 323 321 321 322 326 331 334 337 335 337 341 337 333 333 337 338 337 339 340 339 340 340 339 339 342 341 347 352 356 355 360 367 368 371 371 371
310 313 318 320 319 318 316 314 311 313 312 310 306 298 304 307 308 309 307 303 308 318 319 319 319 321 321 323 323 323 325 327 328 331 335 345 344 336 333 333 334 339 340 340 339 341 340 339 341 337 341 341 345 355 357 362 361 364 368 371 374 374 371
313 316 317 319 318 317 314 314 315 313 309 310 308 307 309 305 307 304 304 302 307 314 327 324 320 322 323 325 323 327 326 330 332 341 350 351 350 345 335 339 340 341 339 341 342 340 341 341 359 356 361 359 353 358 363 364 366 368 369 373 374 372 369
306 308 312 312 316 315 312 311 313 314 314 313 312 311 312 306 306 306 303 299 307 316 322 321 321 319 320 323 324 327 325 328 334 343 356 360 361 349 339 337 349 342 341 338 343 342 344 349 360 359 361 370 361 358 358 365 368 370 371 375 373 372 369
296 297 299 302 305 308 312 313 313 314 312 311 309 306 309 302 311 309 305 306 314 316 321 319 320 320 324 329 323 325 325 328 334 336 342 355 358 355 350 339 346 345 342 348 353 347 351 350 351 359 364 360 364 360 365 368 370 373 375 373 373 370 370
302 306 310 312 313 311 308 310 311 311 313 314 312 310 308 304 310 307 312 309 311 313 314 316 318 321 318 322 324 324 323 330 342 349 356 358 359 346 352 351 355 356 348 351 366 357 356 353 359 359 360 363 366 369 369 372 373 374 374 371 370 369 368
307 309 310 312 313 310 311 310 310 311 312 312 311 308 306 322 307 303 315 323 309 312 314 316 318 319 320 323 331 331 331 334 340 348 352 354 359 351 349 351 356 358 355 357 361 363 363 361 359 360 358 355 352 360 369 370 372 370 368 369 369 367 366
310 310 310 311 311 312 311 311 311 310 311 311 309 310 311 311 306 304 316 319 311 313 314 317 320 323 320 331 336 339 334 333 339 344 345 347 354 356 356 358 359 355 354 357 357 358 359 358 354 351 351 350 351 350 358 370 370 370 370 368 367 367 366
310 310 310 311 310 310 311 311 312 312 311 311 311 310 312 311 310 311 311 320 312 314 316 318 319 324 327 326 330 336 336 337 341 340 340 341 345 348 348 353 361 361 361 361 360 360 358 356 353 349 349 349 349 352 357 367 369 369 370 366 365 365 364
308 310 311 310 310 309 308 310 312 312 312 312 312 311 312 312 311 312 311 312 314 317 323 321 323 325 326 328 325 330 337 336 336 331 330 332 334 339 342 347 353 361 363 362 361 359 357 356 352 351 351 348 347 356 362 363 366 366 365 362 363 362 363
305 309 309 309 309 309 308 308 310 310 310 309 310 310 313 311 310 311 311 311 311 320 322 323 324 323 326 327 327 329 332 334 334 335 335 336 339 344 347 346 346 353 358 360 360 360 360 359 358 359 356 359 361 360 363 362 365 365 362 359 357 357 359
304 308 310 309 309 307 304 305 309 311 312 313 313 314 315 313 313 310 309 310 321 323 325 321 320 319 321 325 327 327 332 337 335 336 337 336 342 348 349 345 352 356 356 359 361 358 360 361 361 361 362 360 360 360 360 359 358 353 351 351 352 353 356
305 308 308 309 305 299 301 312 313 313 311 313 310 311 313 315 314 312 320 320 324 322 321 322 323 326 329 329 331 332 335 336 334 335 338 341 343 344 345 348 354 356 356 357 358 359 358 358 355 357 359 356 355 357 357 355 352 351 350 351 353 353 355
304 308 308 303 298 300 312 315 315 315 314 317 319 321 314 315 317 318 317 318 322 322 323 325 327 328 327 329 331 331 335 339 335 333 336 339 342 345 346 346 350 356 356 355 354 353 352 350 351 353 354 355 353 355 354 351 351 351 351 354 353 354 354
309 306 305 297 299 310 314 318 317 317 316 315 313 312 314 316 316 318 320 321 321 324 323 323 327 329 329 328 332 333 330 336 335 336 337 339 341 343 344 349 352 352 351 351 349 350 352 352 350 349 349 351 351 352 349 349 351 352 351 351 351 352 351
303 305 304 303 311 309 311 314 315 315 315 314 312 307 312 317 319 320 320 322 324 324 326 328 329 331 330 330 334 327 328 332 332 338 336 338 338 344 350 350 349 351 352 348 348 351 351 351 352 349 350 349 348 347 347 348 350 349 349 349 350 350 350
309 304 302 303 303 300 307 314 322 324 324 321 320 316 313 318 319 321 321 323 322 323 323 326 326 326 322 319 323 329 326 330 332 335 336 341 345 345 346 347 345 346 347 346 347 347 348 350 350 350 349 347 347 346 346 347 348 347 347 347 348 348 348
308 305 301 301 300 304 313 314 318 326 327 321 329 313 308 320 320 322 325 322 323 323 323 323 325 322 316 318 326 330 327 330 336 335 336 340 341 341 341 341 342 342 346 344 345 348 347 344 346 347 346 344 343 344 344 345 345 343 343 343 345 345 345
308 307 304 301 307 306 317 320 322 323 323 320 316 304 305 317 320 323 326 325 323 324 326 326 325 320 317 322 326 327 327 328 329 332 335 338 339 341 340 339 340 339 344 346 345 346 345 344 346 346 343 341 342 342 342 342 341 341 342 343 345 345 344
307 307 306 307 313 321 320 320 322 323 323 321 308 302 314 322 321 325 326 325 327 329 329 329 323 327 330 333 336 331 333 331 331 334 336 339 339 339 339 340 347 345 340 336 340 343 344 345 344 344 342 341 341 341 341 339 338 340 342 343 343 342 341
306 307 305 305 313 319 321 325 322 324 316 307 305 321 329 325 325 328 326 327 327 330 332 329 327 327 326 329 328 333 332 332 335 333 333 336 338 339 341 345 342 339 338 340 341 338 341 343 342 341 341 340 339 339 338 337 337 340 342 340 339 340 339
310 310 307 303 297 318 323 321 323 328 317 318 326 332 326 326 324 325 325 326 326 326 327 328 329 326 326 327 329 330 331 331 334 335 336 337 337 338 338 337 338 339 339 340 340 342 342 342 342 341 340 338 338 338 335 336 336 337 337 337 338 338 337
308 306 305 304 314 322 323 325 320 324 326 331 328 325 323 328 325 324 324 326 328 329 329 327 330 329 329 329 330 330 332 333 332 333 336 339 339 343 339 337 338 340 341 341 341 343 342 342 342 341 340 337 336 335 335 337 335 336 337 336 337 335 333
313 311 312 318 323 325 324 327 327 328 331 330 326 326 325 325 325 328 326 326 328 329 329 330 330 328 329 328 328 328 330 330 331 335 335 337 338 341 341 339 341 341 339 340 339 340 340 339 340 340 339 336 334 333 335 337 336 336 336 336 335 333 332
321 320 321 322 322 323 323 325 327 326 326 326 325 325 324 327 329 328 327 327 328 330 332 328 328 329 329 328 327 329 330 330 334 337 335 335 341 344 342 340 341 341 339 339 337 336 337 337 337 337 336 334 332 332 332 334 333 334 335 334 332 331 330
312 305 321 318 319 321 322 323 326 329 329 330 327 327 329 327 328 327 328 331 331 331 334 331 332 330 332 335 337 339 336 334 335 333 335 338 341 342 341 339 339 339 337 335 335 334 334 335 334 334 331 330 332 334 334 329 327 335 332 331 329 329 329
311 313 325 324 322 323 326 325 324 323 326 328 329 329 329 333 334 329 329 330 329 330 330 330 329 328 328 330 332 330 330 331 332 332 335 340 341 342 342 340 339 338 336 335 334 333 333 333 333 331 330 330 329 330 327 326 329 331 330 329 327 327 328
315 318 320 320 321 322 324 323 326 327 327 330 329 327 327 328 329 330 330 330 329 330 329 329 328 326 327 330 331 330 329 332 334 339 341 342 341 341 339 339 339 337 335 334 333 331 330 331 331 331 329 328 328 326 326 330 331 329 328 328 328 327 327
311 315 322 323 314 319 320 320 327 328 329 329 329 328 328 330 334 334 328 328 328 329 330 330 328 326 329 332 334 329 332 336 341 341 341 342 341 339 339 339 338 336 335 332 331 330 330 331 331 330 328 328 330 329 329 329 330 328 327 327 326 325 325
315 319 327 328 327 325 324 324 327 330 329 329 328 329 328 329 330 330 327 328 332 330 329 330 327 331 333 331 337 341 341 342 343 342 341 340 340 338 337 336 335 334 332 330 331 330 330 330 329 327 327 327 329 329 330 329 328 328 327 326 324 324 324
320 323 324 325 325 322 323 327 328 328 330 329 326 327 328 328 330 332 331 334 331 332 329 328 331 333 332 331 336 341 341 340 340 339 339 338 338 337 337 334 333 330 330 329 329 328 329 327 325 327 326 328 328 328 329 329 328 327 326 324 323 323 323
325 327 329 328 327 326 326 328 329 327 330 328 326 328 328 328 330 331 332 336 336 330 331 330 332 332 337 341 341 340 339 340 340 339 338 337 335 335 334 332 330 329 330 330 328 328 327 326 325 325 326 327 328 328 328 328 327 325 324 323 322 322 323
Wind_Speed
16 17 16 16 13 9 4 9 12 10 7 8 8 8 10 12 5 7 5 5 5 9 13 15 10 10 7 6 7 11 15 16 15 14 11 10 10 9 12 16 15 15 15 12 10 10 6 7 12 12 6 4 2 7 8 9 11 9 10 8 9 7 8
16 14 17 16 15 12 5 9 13 15 15 9 7 6 4 7 6 5 7 6 6 6 4 10 11 10 9 10 10 9 10 17 19 15 13 12 10 9 9 8 12 9 15 13 13 14 14 14 16 7 4 7 4 5 5 8 10 12 9 8 8 10 11
15 14 14 16 17 16 12 10 5 10 9 9 9 9 6 5 6 5 6 5 2 5 4 3 6 5 9 8 6 4 12 9 9 13 14 11 11 8 9 13 11 10 14 12 10 11 12 13 13 14 12 8 7 9 9 5 7 12 11 9 8 10 13
11 14 12 13 13 15 18 14 12 5 8 7 8 7 5 3 8 5 5 8 5 7 4 13 11 11 2 13 8 2 5 4 5 5 8 13 6 5 6 8 11 13 15 16 15 12 11 14 13 12 12 10 12 8 6 4 6 8 10 11 12 12 9
10 12 10 13 12 13 14 13 11 8 9 5 8 5 10 8 6 4 3 5 4 4 3 3 10 11 9 8 5 4 3 2 2 11 10 9 1 3 6 8 8 15 15 16 17 16 17 16 12 8 8 11 11 10 8 7 6 6 8 9 9 8 7
12 10 14 16 15 14 13 13 12 9 10 10 7 7 1 6 7 4 4 6 4 4 2 3 1 3 8 11 12 6 5 4 6 7 10 11 8 6 8 12 14 17 15 16 16 14 9 9 8 7 11 9 9 12 11 9 9 6 7 8 8 7 6
9 12 13 18 18 15 13 12 13 12 12 7 6 5 5 5 8 7 5 6 1 6 7 2 4 6 2 2 5 10 6 1 4 9 7 8 11 12 11 13 11 15 15 13 14 12 11 12 12 15 10 12 8 12 10 9 9 11 9 8 7 7 6
9 13 15 15 16 16 14 14 15 15 14 11 10 9 9 9 7 8 5 7 2 6 3 1 9 6 6 4 5 11 5 13 9 6 5 6 6 7 10 8 6 9 13 14 12 14 12 12 2 3 4 5 9 12 9 8 9 9 9 8 7 7 6
6 9 11 12 14 13 11 12 12 13 13 14 14 12 10 11 6 9 6 6 3 7 2 3 3 5 9 10 9 4 4 3 7 3 4 3 3 6 8 8 4 11 12 14 13 14 13 9 6 4 4 1 3 8 9 9 8 8 7 6 6 6 6
10 10 10 11 12 15 11 14 16 15 17 19 15 13 5 6 5 8 7 5 2 9 2 5 4 7 7 5 4 8 8 6 5 5 5 2 3 4 4 10 8 11 12 9 10 13 9 9 7 5 3 1 2 5 7 8 8 7 6 5 5 5 5
10 8 7 6 10 10 12 14 16 18 19 20 14 10 7 6 4 6 4 7 4 6 8 9 6 5 7 6 9 9 10 11 8 6 4 4 5 6 0 4 5 6 11 10 7 10 7 6 6 6 5 4 4 3 6 6 5 5 5 5 5 5 5
17 17 11 12 13 14 15 17 16 18 19 14 11 11 11 3 5 9 3 5 8 7 8 8 7 5 2 7 14 9 9 9 8 7 6 4 7 9 7 8 7 6 9 9 8 9 9 8 8 6 4 5 5 8 1 5 5 5 5 5 4 4 4
15 17 19 17 14 12 13 13 16 17 15 16 16 16 14 14 10 10 6 4 5 4 7 7 6 3 10 14 15 12 9 6 4 4 5 5 5 4 6 4 6 7 7 9 9 10 8 9 8 5 4 5 4 2 11 4 4 5 4 4 4 4 4
12 14 16 18 20 17 17 16 15 15 15 17 18 19 18 18 16 14 13 8 11 8 7 2 4 13 12 8 9 9 5 5 4 4 12 15 14 9 4 5 5 7 7 9 9 9 8 10 8 5 4 2 2 9 10 5 5 4 3 3 3 3 3
13 16 17 18 20 18 18 15 17 17 18 21 20 16 17 17 17 18 16 13 10 6 6 8 7 3 10 9 8 7 5 6 18 19 13 6 2 4 4 6 7 4 6 8 9 8 7 8 7 5 4 6 11 10 6 5 4 4 2 3 2 2 3
12 12 15 16 17 19 19 18 17 16 15 16 11 10 11 16 14 16 17 10 8 9 13 11 9 7 7 6 5 5 9 16 16 12 9 9 7 3 4 4 2 1 4 6 7 7 9 9 10 10 10 10 7 4 3 3 4 3 2 1 1 2 3
11 13 14 15 16 15 17 19 19 19 17 12 12 13 12 15 15 13 11 2 9 9 9 8 5 3 4 8 6 7 13 10 13 9 6 5 6 5 9 7 1 6 5 6 7 8 7 7 6 6 5 4 5 5 4 4 3 2 1 1 1 2 3
9 12 15 14 13 15 12 10 18 19 18 13 14 13 13 13 16 3 11 11 8 7 8 11 13 13 13 13 11 9 6 4 6 10 8 7 8 8 7 7 5 6 6 6 6 7 7 8 8 7 7 6 5 4 4 3 2 1 0 1 2 3 4
11 10 10 12 15 12 7 11 13 16 18 14 12 10 11 13 2 13 10 8 11 12 14 12 11 12 13 17 14 5 11 8 8 7 7 7 9 8 8 7 7 7 8 9 8 8 7 8 8 7 6 4 3 3 3 2 1 1 1 3 3 4 4
8 9 7 11 10 11 6 10 10 14 17 17 19 16 11 11 11 4 8 10 10 14 16 15 12 13 10 9 5 5 8 1 7 8 8 8 8 7 5 8 9 8 8 8 8 7 6 7 6 6 5 4 3 3 1 1 1 2 3 3 4 5 6
11 8 9 11 8 15 10 5 8 8 5 9 8 6 7 9 4 2 8 15 11 13 13 15 16 15 13 7 1 6 9 14 7 7 9 7 6 6 7 9 10 9 8 8 8 7 7 6 5 6 4 4 3 2 2 2 3 3 4 5 5 5 6
10 10 10 9 10 13 9 6 4 8 12 12 7 5 4 5 6 5 4 11 14 14 13 13 13 9 8 6 3 5 6 10 13 11 9 8 7 9 10 10 9 8 7 8 8 7 8 7 6 4 3 2 2 2 2 3 4 4 5 5 5 5 5
9 11 11 10 10 8 7 10 8 7 5 8 5 5 10 7 5 4 15 15 11 11 12 15 12 8 7 4 4 4 2 8 15 12 11 9 10 10 9 9 8 7 5 7 8 8 7 7 5 3 2 2 3 3 4 4 4 5 5 5 5 6 6
11 10 10 11 6 2 7 13 12 6 1 3 6 8 6 6 10 8 13 13 12 12 14 12 8 6 4 3 3 8 6 5 10 11 12 11 11 10 10 8 6 5 6 7 7 6 6 5 3 4 4 4 4 4 4 5 5 6 5 5 6 6 6
12 12 10 8 2 4 5 2 5 7 5 7 6 9 3 3 7 9 10 9 10 10 10 5 6 4 7 7 6 9 13 14 16 13 10 10 9 9 8 7 5 4 5 7 7 7 4 3 3 4 4 3 4 4 5 5 6 5 5 5 6 6 6
10 10 10 7 5 5 11 11 4 4 2 7 6 2 3 9 8 14 10 13 13 11 8 9 8 6 9 10 8 15 16 15 11 9 10 11 10 9 9 7 5 5 5 6 6 6 5 4 5 4 4 4 5 5 5 6 7 6 5 6 7 7 8
8 6 3 4 2 5 12 5 8 11 5 3 1 1 5 8 6 12 14 11 10 11 10 8 7 8 5 8 14 16 12 10 12 13 10 7 7 6 5 5 5 5 4 5 5 4 4 5 4 4 5 5 5 5 6 7 7 7 7 7 6 7 8
4 9 4 0 3 4 3 6 2 2 4 3 5 4 5 12 13 13 11 9 8 10 9 8 9 10 19 16 13 13 12 14 13 9 9 6 5 5 6 6 6 4 4 3 3 3 4 4 4 4 4 5 5 6 7 6 8 8 7 7 7 7 8
3 6 5 7 1 3 5 5 7 3 2 1 1 2 6 6 4 9 8 10 10 9 9 10 8 8 11 14 11 11 12 9 10 8 6 5 4 6 5 5 4 4 3 3 3 4 4 5 4 4 4 5 7 8 7 7 7 7 7 7 6 7 8
5 8 5 3 3 4 4 8 2 2 2 3 5 3 6 7 4 5 9 9 8 9 8 8 8 6 3 4 9 14 10 12 11 6 8 4 5 4 4 3 3 3 3 4 4 5 5 6 5 5 5 7 8 7 8 7 8 8 7 8 7 7 8
4 5 4 11 9 5 4 5 6 3 4 9 6 9 6 1 3 7 8 9 9 10 8 8 8 8 10 12 12 9 11 13 10 7 4 5 6 5 4 3 2 3 4 4 5 5 6 6 6 6 7 7 7 7 8 8 10 5 7 7 8 8 8
7 6 5 8 11 4 9 4 5 3 0 4 5 8 3 5 7 10 10 10 10 8 8 7 8 7 8 8 10 11 9 7 7 8 7 7 6 5 4 3 3 4 5 5 6 6 6 6 6 6 7 7 8 9 11 11 9 9 9 9 10 10 11
8 13 15 11 1 11 3 10 4 5 2 3 11 14 11 9 4 6 10 7 7 6 8 7 6 6 10 11 9 7 10 6 5 7 7 6 5 4 4 3 4 4 4 5 6 6 6 5 5 5 7 9 9 11 10 12 12 11 9 10 10 11 10
5 3 4 6 5 2 6 4 8 4 5 2 8 8 7 2 3 5 3 5 5 4 8 5 4 5 8 12 4 10 11 10 11 8 7 6 5 4 3 3 5 5 6 6 5 5 5 5 6 7 9 8 8 10 11 9 10 10 11 10 10 10 9
3 4 1 2 2 6 6 7 3 5 6 5 7 9 11 8 5 3 1 4 7 8 8 2 6 3 12 11 13 14 12 11 9 7 7 5 4 4 4 4 5 5 5 5 5 5 6 7 8 9 8 8 8 9 9 9 10 10 9 9 9 8 8
2 4 3 2 1 3 2 5 6 4 3 6 5 8 6 8 6 5 4 7 4 3 2 6 5 11 7 8 10 13 12 11 9 8 7 6 4 5 5 5 5 5 4 5 5 7 6 8 8 8 9 9 10 10 10 9 9 9 10 9 9 8 8
4 2 4 4 3 5 2 4 4 7 6 7 8 7 9 9 7 6 6 5 5 7 4 9 8 7 11 12 13 11 10 9 8 8 7 6 6 6 5 5 5 5 5 5 6 6 6 7 8 8 8 9 10 9 9 9 9 9 9 9 9 9 9
Wind_Direction
215 201 208 226 246 244 196 242 216 221 272 240 203 214 246 276 308 305 320 178 190 145 175 173 185 139 209 98 112 136 134 156 171 189 186 199 207 192 170 172 177 168 177 167 139 118 132 193 229 215 222 187 114 136 174 172 179 173 162 168 196 208 197
215 202 200 223 219 252 241 215 238 224 206 247 271 267 188 225 248 218 215 234 192 191 308 175 168 195 171 185 189 186 144 152 172 184 202 196 188 179 201 170 130 171 149 157 132 146 173 212 214 199 146 205 158 177 200 215 169 158 154 178 189 203 214
193 206 199 208 227 219 243 241 309 281 167 199 232 265 252 263 242 264 223 234 282 146 183 56 147 204 181 176 151 147 136 186 187 181 172 152 164 191 187 141 170 168 144 143 139 164 191 214 203 194 199 206 172 187 213 182 163 150 162 176 189 216 215
189 204 206 216 201 212 231 254 257 225 316 294 257 181 264 284 275 223 252 244 201 171 221 180 195 200 99 102 99 78 319 6 89 356 169 170 164 170 162 162 159 144 144 150 158 175 200 219 204 187 191 195 209 173 166 163 167 160 172 187 186 214 231
201 203 201 221 207 202 204 228 234 261 233 218 281 205 203 220 239 273 324 322 325 349 101 30 18 105 126 127 102 61 351 208 82 82 52 95 303 203 160 125 142 151 166 171 171 181 199 215 177 185 196 194 188 155 171 170 203 182 176 182 191 202 224
200 219 185 222 223 212 213 208 228 236 247 219 212 271 281 254 260 223 219 250 223 115 156 57 354 84 58 110 106 101 125 104 81 83 130 157 174 182 149 161 192 167 178 180 174 178 195 216 158 190 226 171 183 160 171 179 174 205 193 194 194 202 210
210 213 207 198 229 231 225 213 217 209 245 260 233 261 208 244 263 290 228 260 140 77 80 86 305 65 59 74 189 111 84 55 123 153 163 175 165 166 190 186 187 160 165 175 174 179 192 208 189 193 206 166 169 149 160 173 176 188 196 189 195 195 201
240 208 223 197 203 240 238 226 218 203 214 221 242 230 225 223 213 245 236 224 160 81 65 138 32 337 110 233 125 135 156 108 93 108 136 137 158 160 191 159 177 150 162 172 169 178 192 203 153 159 103 153 141 149 156 169 185 192 186 187 185 189 199
261 253 202 216 195 206 236 245 227 247 246 226 227 227 246 259 230 242 230 245 251 111 98 130 346 313 289 95 75 81 69 69 81 117 91 76 128 156 150 181 195 176 175 183 169 182 190 181 154 95 37 72 141 152 163 170 187 189 187 182 181 187 201
220 218 208 207 207 198 212 232 246 215 237 257 265 255 212 231 189 232 261 254 169 128 192 343 246 231 242 133 235 183 160 145 133 127 145 170 132 142 166 183 190 177 170 171 159 179 173 155 141 123 113 2 180 136 169 175 175 180 173 178 178 189 194
244 232 251 205 214 237 216 215 222 244 233 228 242 282 276 259 292 258 225 266 231 188 173 201 234 250 274 175 200 233 165 141 125 120 126 142 127 158 212 186 155 150 158 167 127 120 120 122 104 109 86 56 337 164 160 146 160 161 167 175 184 188 195
250 269 261 253 228 227 219 224 227 227 252 255 234 225 240 251 268 248 233 199 241 233 230 204 203 201 235 27 36 6 101 120 126 131 122 135 123 146 203 254 170 133 146 125 113 112 103 93 86 71 68 59 7 343 223 142 155 161 168 183 181 195 202
229 244 262 269 259 243 257 241 232 237 220 238 253 254 252 250 235 245 204 193 246 272 246 257 2 258 92 67 46 30 53 71 76 115 130 144 147 170 160 182 104 133 131 126 127 120 113 111 98 83 69 58 32 354 272 160 159 168 169 179 185 198 209
238 234 248 251 259 263 232 229 236 232 246 246 227 233 248 248 252 255 243 181 223 220 230 298 71 76 85 82 91 98 49 331 344 4 19 12 9 349 359 281 144 131 128 119 121 117 119 113 117 110 81 51 244 231 229 184 162 162 163 180 190 214 228
243 241 234 238 249 252 265 256 233 234 229 223 231 234 230 242 255 263 256 218 209 198 127 145 101 85 62 79 107 120 140 122 62 45 43 67 250 238 298 297 289 101 113 120 119 120 117 116 134 129 134 199 219 223 187 171 172 165 170 177 201 233 255
262 253 245 235 233 242 248 248 253 247 255 269 251 242 254 246 232 222 244 239 203 105 110 114 126 126 124 103 86 98 73 76 93 119 176 183 180 254 176 161 299 191 110 109 118 129 133 141 154 155 171 189 183 160 128 100 90 79 90 94 269 265 266
250 251 259 250 232 231 236 237 237 243 257 266 250 228 247 278 294 280 250 265 90 118 124 125 117 239 186 126 37 76 73 87 122 150 148 145 107 109 63 34 35 107 122 115 109 109 113 127 140 145 132 103 83 80 89 81 86 97 108 157 259 263 266
252 241 245 252 248 232 232 229 232 237 245 236 242 246 231 227 230 276 85 101 103 97 82 50 36 54 58 70 77 67 91 90 117 110 108 105 110 103 110 137 141 116 111 116 109 108 104 97 86 76 77 82 79 77 88 96 72 88 3 286 272 269 271
249 262 261 261 252 242 242 235 233 226 227 245 260 274 274 280 267 108 106 108 131 115 97 97 90 71 58 48 31 32 93 90 101 116 106 105 107 119 132 154 130 96 90 93 102 99 96 92 89 87 88 96 115 112 82 66 47 309 277 284 279 285 284
258 255 244 254 244 271 289 346 288 232 219 222 229 231 231 247 264 150 136 115 99 86 85 88 86 81 62 58 58 3 61 112 148 135 135 138 126 129 141 118 103 113 108 101 100 98 100 103 99 90 90 81 71 76 19 347 323 329 331 311 296 283 281
253 248 254 251 286 275 261 250 258 285 294 272 248 244 215 227 171 195 106 104 116 99 97 98 101 104 99 87 318 140 187 187 171 139 108 113 119 95 93 101 100 93 99 103 103 103 91 84 77 77 63 51 41 7 338 355 356 328 297 284 284 289 291
237 248 240 248 247 250 255 236 275 325 325 318 291 269 228 201 196 183 229 119 104 111 117 113 105 108 111 121 182 175 234 108 128 125 121 131 130 119 102 90 100 115 120 135 132 117 116 101 97 88 67 52 12 331 358 342 313 302 299 299 307 313 318
229 227 245 246 252 256 292 300 231 181 13 349 343 228 243 179 220 252 106 119 129 125 123 122 128 132 147 179 155 211 211 131 133 124 120 121 111 110 115 121 123 116 116 110 103 95 87 87 77 77 44 360 5 3 335 321 317 311 308 314 324 329 329
245 253 240 236 244 300 38 28 19 31 93 222 300 269 239 155 176 146 126 133 142 133 125 125 129 144 166 124 220 180 173 218 116 113 111 118 121 112 104 97 96 111 129 132 122 100 77 51 40 54 359 9 351 330 326 322 312 312 322 334 332 324 323
233 244 255 258 163 67 297 208 100 12 21 48 240 243 327 327 149 82 75 122 130 117 120 125 103 68 78 89 38 60 64 68 93 99 98 94 98 106 114 117 128 112 60 39 75 93 82 65 50 31 11 355 343 337 328 317 318 327 335 334 328 332 329
262 248 250 278 68 347 334 290 81 34 259 203 231 25 22 55 78 99 115 93 89 88 81 97 136 129 91 78 97 83 85 87 84 86 82 82 71 67 64 51 54 71 78 88 67 66 64 54 40 17 11 353 341 338 328 324 326 329 336 341 335 331 328
290 247 33 353 285 326 318 13 38 7 311 82 330 150 81 123 141 84 79 84 95 111 102 92 99 139 121 131 98 92 103 111 90 79 77 77 84 86 89 84 53 59 67 55 54 42 31 43 27 13 7 352 338 339 322 324 328 327 330 321 321 316 310
2 300 286 292 95 200 353 8 62 33 42 26 31 55 94 64 89 98 86 79 78 81 89 96 49 77 89 84 90 95 94 89 96 102 105 133 146 140 90 74 80 78 80 67 62 53 49 32 26 14 8 344 339 326 323 345 341 336 325 317 311 310 314
253 135 236 301 307 224 126 111 99 138 164 287 105 46 110 111 99 92 93 104 101 101 99 85 73 61 104 124 132 126 102 96 94 107 121 80 68 74 68 67 59 51 42 52 38 47 27 27 16 13 357 337 336 334 347 346 325 307 300 297 313 330 335
298 263 226 287 317 319 136 126 51 50 134 194 252 199 102 76 95 88 104 107 109 104 93 100 76 60 35 99 118 118 119 111 122 132 113 142 128 123 114 93 67 56 38 42 39 28 16 22 3 11 350 350 343 341 333 318 316 312 333 347 348 346 336
292 260 265 274 244 216 253 153 125 83 1 347 44 59 44 52 161 116 104 108 106 97 99 95 107 98 82 76 67 75 97 104 113 115 136 156 139 151 103 65 31 54 31 32 28 19 11 12 8 353 358 342 333 331 318 329 319 357 18 352 343 332 330
255 268 233 218 239 289 284 244 154 117 211 1 342 115 66 23 65 106 111 114 111 120 116 130 137 126 97 88 103 109 105 113 147 159 162 150 126 114 106 77 48 51 36 34 22 13 11 3 358 351 339 338 345 340 332 317 343 6 355 349 338 331 324
232 238 245 256 246 272 300 322 351 41 117 69 52 52 45 356 348 124 136 139 127 152 136 148 154 178 153 135 148 155 114 151 149 108 112 115 114 101 78 70 61 52 37 33 23 10 2 352 336 338 349 356 351 325 331 5 9 354 348 340 333 323 322
244 7 343 324 252 199 264 204 22 58 92 68 88 99 103 123 91 98 170 159 159 174 147 178 179 230 134 134 116 111 133 131 119 124 123 126 113 99 88 85 62 50 45 28 11 6 343 351 343 3 4 343 343 358 2 352 356 349 339 333 326 324 324
233 169 232 316 136 172 224 304 322 62 146 138 141 145 147 142 91 54 291 251 172 196 153 84 231 141 99 103 105 104 105 116 120 122 124 116 111 97 76 63 54 45 36 11 358 351 353 2 359 7 340 335 2 354 359 357 349 345 339 327 327 325 323
212 161 138 272 303 289 220 208 193 158 192 178 186 175 159 123 124 86 54 34 92 26 113 173 101 89 103 116 115 109 111 114 117 115 106 103 99 102 80 65 56 31 19 355 354 359 16 18 360 333 345 3 1 356 356 351 353 343 340 335 330 329 324
127 124 171 233 232 232 150 53 273 199 207 173 214 158 125 140 143 126 86 35 28 86 52 80 70 81 88 94 110 116 118 115 112 110 103 94 81 75 69 63 41 18 349 344 6 1 13 2 346 1 360 2 7 359 355 348 345 340 337 333 326 323 320